Theta_e
330 328 325 333 335 335 341 343 343 341 336 331 335 334 331 335 334 332 325 331 337 337 337 334 333 331 327 330 329 327 326 322 325 328 331 337 338 337 335 334 333 331 331
337 330 333 337 340 340 342 343 343 342 341 340 339 339 337 335 334 332 335 332 332 334 336 335 333 330 330 331 330 329 328 328 326 322 320 326 335 338 338 337 335 334 332
341 340 340 342 342 342 342 343 342 341 339 339 338 337 337 332 336 337 337 337 335 335 335 334 334 334 333 332 331 328 328 329 329 328 325 325 322 329 336 338 338 337 335
344 343 342 342 341 343 342 340 341 342 340 339 337 335 335 333 331 332 336 336 336 337 337 337 336 334 333 332 332 330 332 331 334 335 334 332 327 325 323 326 335 338 337
344 341 344 344 344 342 341 342 342 340 339 337 337 335 334 331 331 327 327 329 331 332 334 336 335 332 333 335 335 336 340 339 340 341 343 341 339 333 329 326 323 332 338
339 339 338 335 333 337 335 337 336 337 334 331 330 330 332 332 329 329 326 329 332 330 332 332 331 329 329 329 333 335 336 333 329 339 341 339 338 338 336 333 327 324 334
338 340 334 331 333 335 334 333 333 334 333 333 334 332 330 323 321 326 324 324 325 326 327 329 329 330 329 331 332 333 330 327 330 337 339 336 339 339 338 336 331 330 329
334 332 328 330 333 333 328 330 332 334 334 333 332 330 324 319 319 320 321 323 325 327 327 328 330 329 330 331 332 330 328 327 327 335 330 331 339 339 336 337 335 333 333
330 324 328 328 328 330 330 331 334 335 334 332 330 322 323 322 321 320 320 324 325 326 326 326 325 327 328 328 328 328 328 325 325 333 339 335 334 328 328 332 335 334 337
330 333 334 333 332 332 334 334 334 333 332 329 324 322 321 321 322 323 323 323 326 324 326 326 327 326 326 328 327 325 326 331 328 336 340 336 335 332 330 328 330 335 337
334 332 330 329 329 328 327 328 331 333 332 330 330 330 327 325 326 329 330 329 328 325 326 327 329 328 325 326 326 325 322 330 334 332 331 333 331 331 331 331 334 335 336
330 328 327 326 325 324 324 323 323 325 326 327 328 329 329 328 328 327 327 327 327 327 327 327 326 327 328 328 327 324 322 323 327 327 334 329 327 329 329 333 337 334 333
323 322 321 319 318 317 317 317 317 317 317 318 318 318 319 321 322 323 323 322 322 323 324 324 326 327 326 327 328 327 329 330 330 328 330 330 329 331 330 330 338 337 336
316 315 314 314 314 315 315 315 315 315 315 314 314 314 314 315 315 315 316 316 316 317 318 318 320 323 325 326 326 326 327 328 327 324 329 328 330 330 331 329 332 334 334
314 314 314 314 314 313 312 311 310 309 309 308 308 308 308 308 309 310 312 312 312 312 313 314 315 316 318 321 325 327 327 327 326 325 328 328 328 322 325 331 329 329 330
314 314 313 312 311 310 309 309 309 309 308 308 307 307 307 307 307 307 306 307 307 307 308 309 310 311 313 315 318 322 325 326 326 326 326 325 323 321 321 331 330 328 327
313 312 311 311 310 309 309 309 309 308 308 307 307 307 307 307 307 307 306 306 306 306 307 305 305 306 306 307 308 312 316 319 321 323 324 322 319 330 326 332 328 329 331
311 311 311 309 309 309 308 308 307 307 307 307 308 307 307 306 306 306 305 306 307 307 306 305 305 305 305 305 305 307 309 310 315 319 320 320 325 330 330 330 324 324 324
311 311 310 310 310 309 307 307 308 309 308 308 308 309 309 309 309 309 308 308 308 307 307 306 306 306 306 306 305 306 308 311 310 313 321 322 329 331 333 328 324 323 321
311 311 310 310 309 307 308 309 309 309 309 309 309 309 310 311 311 312 311 310 310 309 309 308 307 306 305 306 306 305 304 305 306 310 319 323 326 327 331 328 324 324 323
311 310 310 308 307 309 309 310 309 310 310 310 311 312 312 312 313 312 311 312 312 310 310 309 308 306 305 306 307 305 304 304 305 307 313 321 325 327 328 327 325 325 324
310 309 307 307 308 309 309 308 308 308 310 311 312 313 314 314 314 314 314 314 313 310 309 309 308 307 307 306 307 304 304 304 304 309 320 325 324 329 329 327 325 323 323
308 307 307 308 308 308 308 308 307 310 311 312 313 315 315 315 314 314 314 313 313 312 309 309 309 309 310 310 307 306 304 304 304 307 310 319 324 327 328 327 325 322 323
306 306 307 308 308 307 307 307 307 311 312 313 314 315 314 315 315 314 313 312 312 313 312 310 310 310 311 311 309 307 305 304 305 306 307 312 322 327 327 326 324 322 323
306 305 306 306 307 307 306 306 309 312 313 314 315 314 314 314 315 314 314 313 314 313 313 311 310 311 312 311 311 309 307 305 306 306 314 314 319 324 327 326 324 322 326
305 305 305 305 305 306 305 307 310 312 314 315 315 314 314 315 314 314 314 313 312 313 313 311 310 310 311 311 312 311 309 307 306 307 312 317 320 325 326 325 323 324 326
Wind_Speed
10 9 9 7 7 8 6 3 6 6 7 10 11 11 13 13 14 15 20 22 22 21 22 22 21 22 21 22 24 23 25 26 26 25 24 23 23 23 22 22 22 22 20
9 10 9 9 8 7 8 7 8 10 10 13 14 14 14 16 19 22 22 22 26 26 25 24 23 23 26 26 27 25 24 25 27 26 26 26 25 25 25 25 23 22 23
12 10 9 7 9 10 11 11 13 14 16 17 17 17 19 26 29 28 26 25 26 27 27 27 30 33 33 32 33 30 29 26 25 26 26 27 27 27 26 27 26 24 23
12 8 8 9 9 12 13 13 17 20 21 21 23 26 24 27 31 32 30 31 33 32 30 30 31 33 35 34 35 35 33 27 24 23 25 28 29 27 26 28 29 28 25
12 9 7 11 14 14 19 20 20 21 22 23 27 32 32 33 31 23 32 33 37 38 42 38 37 38 40 38 38 33 30 26 28 23 26 29 31 30 28 27 29 29 28
11 9 12 13 15 19 16 19 19 18 18 22 25 24 25 26 28 33 27 27 32 35 36 41 33 34 44 51 43 33 29 28 25 25 23 27 27 28 29 28 27 29 29
11 11 11 12 16 14 12 14 15 17 19 17 19 21 23 27 29 26 30 28 26 28 23 25 30 34 36 40 44 41 33 23 29 19 21 22 27 25 24 25 26 26 29
9 10 12 12 13 13 12 15 16 17 18 20 19 25 24 25 23 18 18 20 21 18 24 22 21 23 27 26 26 29 31 31 34 21 23 22 27 26 26 25 24 24 26
11 11 12 14 13 14 14 14 15 15 19 19 18 17 10 9 22 27 23 19 21 20 23 22 19 18 14 15 14 22 25 24 26 24 25 29 31 33 31 26 24 25 24
12 13 11 10 11 12 14 16 17 18 19 19 19 20 18 23 17 23 30 26 23 27 29 30 28 26 26 27 28 28 27 27 34 37 28 32 33 35 33 30 27 26 25
10 10 9 9 10 11 13 15 15 17 20 22 22 23 27 29 30 26 30 34 34 34 36 35 34 31 30 35 34 32 29 27 29 32 32 31 33 33 35 33 26 25 26
11 9 10 10 11 13 15 16 18 19 21 23 24 25 24 20 23 27 31 29 35 33 34 37 41 39 38 38 39 37 36 29 29 28 28 31 30 31 29 27 24 21 20
10 11 12 13 15 17 19 21 23 24 26 28 29 30 30 30 31 33 36 42 41 45 39 43 41 42 41 40 40 33 30 29 27 27 31 33 33 32 28 26 24 24 23
11 12 13 14 16 18 20 22 24 25 27 28 30 30 32 33 34 35 37 38 41 41 44 40 28 27 40 41 43 43 37 31 29 31 31 33 36 28 29 29 27 26 27
7 10 12 15 17 19 21 21 21 22 22 23 25 27 29 31 33 35 35 35 34 34 40 37 35 32 34 37 38 38 39 42 40 36 33 31 33 33 28 31 29 29 30
9 11 13 16 17 18 19 20 22 23 24 25 25 25 27 27 27 27 28 31 33 36 40 36 40 43 42 42 40 39 38 41 41 40 41 39 38 42 36 31 28 25 26
10 12 15 16 18 19 21 22 24 25 25 25 25 27 28 26 28 29 28 26 29 31 40 42 42 41 41 42 45 47 48 46 47 45 45 43 39 37 30 28 19 22 24
12 15 17 17 20 22 23 23 23 21 23 24 25 25 27 27 29 29 30 28 31 33 39 41 39 40 38 35 35 35 37 41 48 42 47 44 34 28 28 24 16 15 15
14 17 18 21 24 25 24 19 18 17 19 21 24 26 27 28 30 30 30 32 32 33 35 38 40 39 39 36 32 29 30 31 35 42 36 35 27 27 27 25 21 20 21
17 18 22 25 24 22 16 14 15 17 20 23 26 28 30 32 33 34 35 36 36 36 34 35 35 35 33 33 31 34 36 34 37 33 36 26 30 27 26 26 24 22 22
19 23 25 23 19 12 13 14 17 21 23 26 26 25 24 26 28 29 30 33 36 38 36 37 35 31 32 31 32 31 31 31 30 27 30 27 25 29 30 29 26 23 23
22 22 20 15 9 13 14 16 19 26 26 24 23 26 30 33 33 32 32 32 30 35 41 41 38 34 33 33 31 31 29 27 29 11 14 20 22 25 29 30 28 24 24
19 16 11 11 11 14 16 19 24 25 19 21 28 31 31 33 32 31 30 29 32 32 35 39 43 40 37 30 30 31 30 27 24 24 26 22 12 20 28 28 25 20 22
12 11 12 14 14 15 18 22 26 19 21 26 26 25 27 30 25 28 30 30 30 33 32 32 35 35 33 28 29 27 26 27 26 26 25 29 17 19 20 26 21 17 21
9 11 13 16 18 18 20 23 23 19 25 26 20 21 25 26 26 26 30 33 32 33 32 31 33 31 29 27 25 26 27 25 27 25 15 21 22 19 22 24 21 18 17
13 14 16 17 18 20 21 23 19 23 24 23 22 24 26 25 24 25 25 28 34 34 29 29 30 31 28 28 26 26 27 28 28 26 18 18 21 24 22 24 20 18 18
Wind_Direction
225 224 217 212 205 195 191 227 258 266 252 250 268 280 282 287 283 285 278 272 275 266 271 278 274 272 278 292 295 297 301 294 289 288 284 284 282 279 280 278 275 272 272
226 202 197 204 202 203 216 227 238 237 241 242 244 254 261 262 265 264 267 271 274 274 272 273 268 262 269 277 282 283 289 294 295 291 287 284 282 281 279 280 278 275 272
203 189 197 205 228 240 245 257 264 263 268 272 273 266 267 282 271 261 256 253 265 272 275 274 273 273 274 278 277 273 279 276 282 289 291 292 286 281 279 278 277 276 274
216 219 219 237 255 251 255 263 270 267 269 271 271 273 285 287 279 279 276 271 272 273 268 270 272 273 275 277 277 277 276 273 278 287 293 290 286 284 281 277 275 274 273
237 240 247 266 269 264 274 264 267 272 276 286 284 285 283 284 290 293 288 283 271 274 270 269 266 272 275 276 275 272 268 267 279 285 291 287 285 283 279 277 274 272 271
249 248 250 263 269 273 275 263 270 274 283 295 286 280 279 287 288 283 294 290 275 279 271 267 273 273 268 262 262 257 267 265 281 282 287 284 285 283 281 278 275 270 268
226 237 239 259 254 271 280 276 285 288 293 296 290 294 290 292 296 287 297 276 275 292 277 280 284 285 282 275 264 258 262 246 288 285 291 292 286 282 285 280 272 274 266
215 243 255 259 257 262 271 281 284 283 282 290 285 293 298 300 299 296 301 279 281 276 270 285 274 292 298 279 272 258 258 247 268 279 290 297 290 288 287 282 275 271 269
245 251 249 255 254 257 266 267 273 274 274 278 280 277 286 282 297 295 291 282 280 279 281 282 282 292 293 300 284 264 261 261 260 268 276 288 286 290 286 288 277 271 267
254 261 254 251 254 257 258 260 262 261 262 267 270 271 274 274 288 295 288 280 280 281 286 286 288 286 286 285 286 288 281 268 260 272 274 282 281 288 289 293 276 271 265
237 232 243 253 253 257 257 258 260 258 258 263 272 274 274 277 279 283 287 291 287 277 281 289 296 292 285 287 289 289 291 278 267 269 273 280 284 284 287 286 269 270 258
218 232 241 245 251 255 259 262 263 264 265 267 269 272 274 282 284 278 281 290 285 287 287 283 287 285 289 288 290 292 294 289 282 275 274 282 282 285 285 280 263 270 260
233 245 254 262 269 273 274 274 273 274 273 274 275 273 272 272 273 275 278 281 285 284 285 280 278 282 282 286 289 290 288 280 276 275 272 274 276 283 284 276 261 258 264
247 258 265 272 278 281 283 282 282 281 280 279 278 277 278 275 275 275 278 284 291 287 286 287 285 282 275 277 278 280 276 273 272 272 270 269 272 283 280 275 262 259 267
272 282 289 292 293 295 296 298 297 296 294 291 289 287 285 282 279 277 276 277 281 292 287 286 287 284 267 266 267 267 266 268 266 266 266 265 266 276 279 273 267 260 264
298 303 308 309 311 311 311 309 308 306 302 300 297 294 292 292 289 288 286 282 279 280 284 283 281 280 276 271 268 264 265 266 263 262 266 270 275 273 273 266 272 258 253
318 320 313 313 315 317 316 313 312 308 305 303 300 298 297 297 291 290 291 286 279 280 287 292 288 288 287 286 281 273 268 267 265 262 261 263 265 268 250 258 263 254 256
318 317 318 318 321 321 317 312 310 307 303 304 306 305 303 303 296 294 293 285 279 280 284 287 289 290 292 293 287 282 279 270 263 264 263 260 263 247 238 238 246 256 258
313 315 317 318 318 319 314 310 310 315 317 316 316 313 310 310 305 302 296 292 288 288 287 287 288 289 292 295 293 286 280 279 273 260 265 256 251 242 228 233 246 250 259
307 309 313 314 315 313 315 316 319 317 313 310 308 303 303 303 298 296 291 286 285 284 285 285 287 293 295 294 291 290 287 287 279 270 252 257 248 244 234 236 242 257 257
303 307 309 309 309 312 317 313 307 302 302 307 312 322 324 323 318 313 306 296 284 279 279 283 285 283 291 298 295 295 283 289 291 272 254 259 251 243 235 238 246 255 264
299 304 307 307 310 307 311 306 307 309 309 313 325 321 315 310 309 301 294 295 295 277 268 268 271 272 283 290 298 297 292 296 301 292 254 254 244 237 228 237 247 257 258
297 302 301 305 308 303 309 305 313 318 319 319 314 318 318 318 313 307 299 295 288 288 269 262 264 270 279 287 290 292 291 289 288 271 272 267 245 242 235 234 244 256 242
294 300 299 304 309 312 308 307 318 311 311 311 317 327 328 328 335 334 325 307 289 287 281 263 262 264 273 279 283 288 291 287 283 277 281 264 248 233 225 232 241 258 236
302 297 300 299 302 311 315 316 316 309 312 319 325 326 335 329 325 321 316 312 306 288 285 275 264 262 262 268 277 278 272 274 282 280 285 259 253 252 226 232 238 244 228
300 305 298 298 306 308 318 322 312 312 321 326 330 332 338 339 326 322 323 319 314 309 294 279 270 260 263 264 266 262 263 262 266 278 264 237 252 232 214 223 233 225 221